EW8359 Weather Reports


Display with metric or nautical units.
time (UTC)temp
F
wind
direction
speed
MPH
gust
MPH
rain 1hr
in
rain 24hr
in
rain mn
in
humidity
%
barometer
mb
20260507201545 62 277 0.0 11.0 0.00 0.22 0.00 32 1002.5
20260507200043 62 230 2.0 14.0 0.00 0.22 0.00 32 1002.5
20260507194542 61 55 2.0 12.0 0.00 0.33 0.00 33 1002.5
20260507193048 60 319 0.0 5.0 0.00 0.33 0.00 39 1002.6
20260507191541 59 229 0.0 7.0 0.00 0.33 0.00 40 1002.7
20260507190041 59 227 0.0 5.0 0.00 0.33 0.00 37 1002.9
20260507184541 60 192 0.0 5.0 0.00 0.75 0.00 41 1002.8
20260507183038 61 203 1.0 12.0 0.00 0.75 0.00 35 1002.8
20260507181538 62 243 1.0 10.0 0.00 0.75 0.00 35 1002.9
20260507180037 62 254 1.0 14.0 0.00 0.75 0.00 37 1003.0
20260507174546 61 223 1.0 9.0 0.00 0.75 0.00 42 1002.9
20260507173033 59 152 5.0 14.0 0.00 0.75 0.00 44 1003.3
20260507171542 59 269 1.0 16.0 0.00 0.75 0.00 47 1003.3
20260507170032 59 182 2.0 9.0 0.00 0.75 0.00 48 1003.6
20260507164534 59 192 0.0 12.0 0.00 0.75 0.00 52 1003.8
20260507163029 60 187 1.0 9.0 0.00 0.75 0.00 50 1003.7
20260507161530 58 174 2.0 11.0 0.00 0.75 0.00 51 1003.8
20260507160031 59 276 1.0 15.0 0.00 0.75 0.00 49 1004.1
20260507154527 60 192 0.0 9.0 0.00 0.75 0.00 55 1004.3
20260507153028 60 265 1.0 12.0 0.00 0.75 0.00 53 1004.2
20260507151524 59 270 3.0 12.0 0.00 0.75 0.00 54 1004.2
20260507150023 58 229 3.0 17.0 0.00 0.75 0.00 52 1004.2
20260507144522 59 257 0.0 9.0 0.00 0.75 0.00 55 1004.1
20260507143023 59 222 0.0 12.0 0.00 0.75 0.00 51 1004.0
20260507141522 59 246 1.0 7.0 0.00 0.75 0.00 55 1004.0
20260507140032 58 282 1.0 9.0 0.00 0.75 0.00 59 1004.2
20260507134517 58 223 1.0 4.0 0.00 0.75 0.00 58 1004.3
20260507133014 56 279 2.0 9.0 0.00 0.75 0.00 56 1004.5
20260507131512 55 294 1.0 10.0 0.00 0.75 0.00 61 1004.5
20260507130006 55 13 0.0 9.0 0.00 0.75 0.00 61 1004.7
20260507124505 54 215 0.0 9.0 0.00 0.75 0.00 67 1004.8
20260507123106 53 311 0.0 8.0 0.00 0.75 0.00 71 1004.8
20260507121600 53 101 0.0 2.0 0.00 0.75 0.00 74 1004.8
20260507120057 52 216 1.0 10.0 0.00 0.75 0.00 76 1004.8
20260507114556 50 11 3.0 9.0 0.00 0.75 0.00 78 1004.8
20260507113127 48 300 0.0 6.0 0.00 0.75 0.00 85 1004.7
20260507111553 47 208 0.0 0.0 0.00 0.75 0.00 89 1004.6
20260507110052 47 208 0.0 3.0 0.00 0.75 0.00 89 1005.0
20260507104600 47 228 0.0 4.0 0.00 0.75 0.00 90 1005.1
20260507103049 46 239 0.0 2.0 0.00 0.75 0.00 91 1005.0
20260507101553 46 248 0.0 0.0 0.00 0.75 0.00 91 1004.8
20260507100055 46 242 0.0 4.0 0.00 0.75 0.00 92 1004.8
20260507094545 46 215 0.0 4.0 0.00 0.75 0.00 92 1004.7
20260507093042 46 221 0.0 0.0 0.00 0.75 0.00 92 1004.7
20260507091543 47 278 0.0 1.0 0.00 0.75 0.00 91 1004.4
20260507090041 47 302 0.0 2.0 0.00 0.75 0.00 91 1004.0
20260507084550 47 313 0.0 1.0 0.00 0.75 0.00 91 1004.6
20260507083036 47 234 0.0 2.0 0.00 0.75 0.00 91 1004.1
20260507081534 47 198 0.0 3.0 0.00 0.75 0.00 91 1004.6
20260507080032 47 283 0.0 5.0 0.00 0.75 0.00 91 1003.7
20260507074532 47 232 0.0 4.0 0.00 0.75 0.00 91 1004.1
20260507073029 48 278 0.0 3.0 0.00 0.75 0.00 91 1003.8
20260507071529 48 273 1.0 9.0 0.00 0.75 0.00 91 1003.8
20260507070025 48 220 0.0 4.0 0.00 0.75 0.00 92 1003.6
20260507064522 48 227 0.0 5.0 0.00 0.75 0.00 92 1003.7
20260507063017 49 126 0.0 4.0 0.00 0.75 0.00 92 1003.4
20260507061514 49 211 0.0 5.0 0.00 0.75 0.00 93 1003.3
20260507060020 50 198 0.0 0.0 0.00 0.75 0.00 93 1003.2
20260507054510 50 198 0.0 2.0 0.00 0.75 0.00 92 1003.1
20260507053008 50 194 0.0 2.0 0.00 0.75 0.00 92 1003.1
20260507051507 50 342 0.0 7.0 0.00 0.75 0.00 92 1002.6
20260507050013 51 217 0.0 6.0 0.00 0.75 0.00 92 1002.9
20260507044502 51 211 1.0 8.0 0.02 0.75 0.00 92 1002.8
20260507043058 51 204 2.0 8.0 0.04 0.75 0.00 91 1002.3
20260507041555 52 246 3.0 10.0 0.04 0.75 0.00 92 1002.2
20260507040056 53 259 0.0 10.0 0.05 0.75 0.00 92 1002.2
20260507034549 54 188 3.0 13.0 0.03 0.73 0.73 90 1002.2
20260507033047 54 234 1.0 7.0 0.01 0.71 0.71 91 1002.5
20260507031544 56 280 2.0 7.0 0.02 0.71 0.71 92 1002.2
20260507030045 56 231 0.0 4.0 0.01 0.70 0.70 92 1002.0
20260507024547 57 242 2.0 8.0 0.01 0.70 0.70 92 1002.1
20260507023042 58 277 3.0 7.0 0.01 0.70 0.70 92 1002.2
20260507021554 59 198 0.0 5.0 0.00 0.69 0.69 94 1002.0
20260507020042 59 142 1.0 5.0 0.00 0.69 0.69 94 1002.0
20260507014541 59 169 2.0 9.0 0.01 0.69 0.69 94 1002.1
20260507013040 59 149 0.0 10.0 0.01 0.69 0.69 93 1002.2
20260507011543 59 223 2.0 8.0 0.01 0.69 0.69 93 1002.2
20260507010044 59 231 0.0 7.0 0.01 0.69 0.69 94 1002.2
20260507004540 59 200 0.0 4.0 0.00 0.68 0.68 94 1002.2
20260507003037 59 153 0.0 5.0 0.00 0.68 0.68 93 1002.2
20260507001537 59 137 3.0 9.0 0.00 0.68 0.68 93 1002.1
20260507000037 59 144 0.0 5.0 0.00 0.68 0.68 93 1001.9
20260506234538 59 136 1.0 9.0 0.00 0.68 0.68 93 1002.0
20260506233033 59 150 2.0 11.0 0.00 0.68 0.68 94 1002.1
20260506231531 59 267 0.0 14.0 0.00 0.68 0.68 94 1002.2
20260506230034 59 159 2.0 7.0 0.00 0.68 0.68 94 1002.3
20260506224531 59 225 2.0 8.0 0.00 0.68 0.68 94 1002.3
20260506223030 59 169 1.0 9.0 0.01 0.68 0.68 95 1002.4
20260506221529 59 144 3.0 9.0 0.02 0.68 0.68 95 1002.3
20260506220034 59 140 0.0 7.0 0.04 0.68 0.68 95 1002.5
20260506214526 59 222 1.0 8.0 0.05 0.68 0.68 94 1002.6
20260506213029 59 159 0.0 8.0 0.07 0.67 0.67 94 1002.7
20260506211527 59 151 0.0 5.0 0.11 0.66 0.66 94 1002.9
20260506210028 60 155 1.0 6.0 0.11 0.64 0.64 94 1003.2
20260506204526 60 128 2.0 8.0 0.11 0.63 0.63 94 1003.1
20260506203027 60 138 0.0 7.0 0.08 0.59 0.59 93 1003.2